sat.trackr.live / text

‹ back to catalog

STARLINK-11664 [DTC]

NORAD 63666 · 2025-085C

PAYLOAD ACTIVE UNKNOWN

§ Identity

Operator
Country
US
Launch date
2025-04-28
Launch site
AFETR
Launch vehicle
Mass (kg)
RCS (m²)

Purposes: comms

External: N2YO · Heavens-Above · Gunter

§ Orbital elements

Epoch: 2026-05-26T10:37:11.633664Z

Period
88.66 min
Inclination
42.9801°
Eccentricity
0.0012795
Mean motion
16.24111503 rev/d
Perigee alt
200.0 km
Apogee alt
216.8 km
Semi-major
6,586.5 km
B*
3.2906e-3
RAAN
160.3887°
Arg perigee
151.7638°
Mean anomaly
208.3945°
Rev number
6,258

§ Raw data

STARLINK-11664 [DTC]1 63666U 25085C   26146.44249576  .09495563  88137-5  32906-2 0  99922 63666  42.9801 160.3887 0012795 151.7638 208.3945 16.24111503 62587

JSON: /api/v1/satellites/63666 · /tle

For live sub-satellite position, see the globe view (requires WebGL).

§ Visibility from observer

Set your observer location to see the next 7 days of passes ≥ 10°. The values pass through the URL so the page stays shareable.

No JS? Fill the form by hand. The geolocation button needs JavaScript.